RH
62 63 52 40 25 16 16 16 17 18 27 24 27 26 38 66 56 51 56 72 75 70 59 63 64 66 71 74 76 77 79 78 80 87 73 72 74 74 72 76 67 77 79 82
78 66 40 32 30 25 22 18 16 31 31 21 28 24 28 77 56 51 59 68 76 76 67 68 70 70 72 74 77 75 74 71 76 75 63 72 72 73 70 60 67 82 79 79
69 53 46 40 35 28 22 16 25 18 31 27 30 24 32 46 65 56 51 53 59 69 70 72 72 72 73 75 78 74 71 73 84 70 61 66 72 70 68 68 72 86 78 74
61 52 53 46 38 25 29 21 24 36 25 23 25 17 27 28 47 57 60 59 56 60 60 64 70 73 75 75 77 74 71 73 78 76 73 70 68 63 73 61 73 87 83 81
88 64 58 51 39 29 28 29 34 31 18 26 28 22 11 26 30 37 46 53 54 55 58 60 68 71 73 77 80 79 74 75 77 80 72 70 65 61 68 64 77 80 82 79
61 47 47 42 35 28 37 34 37 41 35 45 18 16 10 20 24 24 28 39 48 50 54 56 62 67 71 78 84 83 78 78 79 82 77 72 68 68 71 80 76 75 81 88
67 60 47 38 41 41 34 27 54 50 70 32 33 29 10 12 12 17 21 25 32 44 52 56 59 66 69 78 84 85 82 80 82 84 83 78 70 71 71 76 80 75 85 90
98 95 53 37 36 39 36 25 43 54 37 31 45 34 16 10 14 16 16 17 21 30 44 53 58 65 72 78 83 84 84 80 83 83 89 76 71 70 68 74 76 79 82 85
98 81 46 37 31 31 37 38 25 44 48 29 26 30 27 26 30 27 24 24 22 24 27 43 55 65 70 79 82 82 82 81 83 84 87 86 78 77 76 71 79 82 84 87
90 87 50 42 33 33 31 24 38 43 58 33 43 26 23 32 25 29 30 30 27 25 25 28 42 60 67 75 81 82 80 81 83 85 84 84 87 84 82 74 84 86 87 87
91 66 69 45 43 39 37 35 30 26 45 45 29 29 26 20 26 21 24 25 25 30 31 29 29 43 61 72 80 89 90 86 84 86 86 85 85 86 84 84 85 87 88 86
88 75 68 64 45 36 28 29 27 35 42 50 41 24 26 29 30 31 24 27 31 35 36 37 36 40 52 64 75 86 95 94 91 89 88 90 87 89 89 89 89 89 86 83
100 84 94 92 68 46 41 33 27 25 30 33 41 24 28 30 32 30 32 34 37 39 45 47 52 57 56 62 67 77 94 97 95 96 95 95 94 95 94 97 95 86 83 84
96 78 58 58 54 44 49 38 32 28 36 31 30 22 21 22 25 27 30 36 40 47 50 52 54 53 56 60 66 73 89 96 98 99 97 99 100 99 100 98 94 92 89 88
98 91 71 67 58 50 44 43 40 39 31 34 27 32 25 22 19 25 28 43 48 51 55 54 54 54 59 66 70 76 87 98 99 99 100 100 100 100 100 99 96 93 91 90
91 99 77 75 59 56 54 46 42 40 36 33 33 32 30 26 27 28 29 40 44 46 51 54 57 58 61 67 75 82 91 100 99 99 100 100 100 100 100 100 95 89 86 84
94 94 98 92 71 70 77 61 50 45 68 71 49 60 65 58 62 57 57 47 44 45 43 46 50 55 60 67 76 81 89 98 100 100 100 100 100 100 100 98 95 90 86 81
93 95 96 97 92 88 80 61 63 74 76 70 69 69 67 66 65 60 58 62 59 55 55 52 49 52 61 70 79 81 88 93 98 100 100 100 100 100 98 96 95 94 91 88
83 91 94 96 91 90 73 81 85 89 89 67 74 67 64 62 56 55 55 61 61 57 56 60 61 62 68 77 82 84 89 92 96 98 99 100 100 100 98 97 96 94 93 97
78 88 94 94 94 95 87 85 75 73 92 65 69 71 72 66 62 43 59 60 58 57 60 64 70 80 80 81 85 86 89 92 94 99 100 100 100 99 99 99 99 97 95 96
78 81 89 90 90 94 84 75 86 92 85 67 68 70 73 82 72 63 58 60 60 60 63 68 77 80 77 82 86 86 90 92 96 99 100 100 100 99 99 99 99 99 98 94
84 88 83 82 91 94 73 60 84 88 76 66 62 66 73 70 65 63 61 63 60 60 65 71 80 80 80 84 87 88 90 94 98 98 99 100 100 99 98 96 97 95 94 91
86 88 85 86 80 68 61 57 78 55 62 59 59 57 63 72 67 63 66 64 62 62 67 72 76 77 81 84 86 89 92 96 97 96 96 93 91 92 91 90 86 83 81 78
73 72 84 77 81 60 50 68 52 48 56 53 54 58 58 66 66 66 65 66 64 65 68 74 77 78 79 84 85 87 91 92 93 90 88 82 81 83 81 79 73 71 68 64
61 66 69 74 70 60 82 68 52 58 55 56 54 56 61 65 69 67 70 71 69 68 71 76 79 79 79 83 85 86 85 86 85 82 80 76 80 75 73 69 65 58 55 48
63 68 59 54 57 73 63 58 61 72 69 64 66 66 64 65 70 73 74 76 76 73 74 76 78 78 79 81 82 82 80 79 77 73 73 76 69 64 64 64 72 60 52 54
Wind_Speed
20 13 23 26 19 10 15 16 19 8 7 11 14 10 14 14 14 17 17 17 18 19 23 24 25 25 24 23 23 25 25 24 23 23 24 23 22 19 16 11 12 12 10 9
10 23 19 19 9 10 15 18 16 4 4 9 12 11 10 14 18 19 19 18 18 17 19 23 25 26 26 25 24 25 26 26 23 25 25 21 22 22 17 16 13 11 11 11
24 21 16 17 13 12 15 21 13 11 7 2 11 13 7 10 8 13 15 16 18 20 21 19 25 27 26 26 26 26 27 26 23 29 26 22 20 17 17 17 16 12 13 12
15 11 18 16 18 13 8 6 12 15 15 10 8 11 15 12 16 14 15 16 18 20 19 19 25 27 28 28 27 27 27 27 24 26 24 23 21 18 14 20 20 14 13 12
6 23 22 19 23 10 4 11 11 10 13 6 9 6 19 11 15 18 19 19 20 20 21 22 26 32 33 31 29 29 29 29 27 26 25 25 24 21 18 20 21 17 14 15
9 20 17 8 14 9 16 11 8 5 2 6 14 15 17 13 20 18 19 19 21 20 21 21 30 29 30 29 29 30 31 30 29 28 28 27 26 21 20 17 22 19 16 15
12 21 6 15 17 9 9 18 5 4 5 6 4 11 13 16 21 23 21 22 22 21 20 21 21 27 29 31 31 30 31 31 30 30 30 30 33 28 25 24 21 24 20 16
5 7 18 18 23 15 22 19 8 10 9 7 4 9 6 17 8 14 12 17 16 18 19 20 21 28 29 31 33 33 33 33 32 32 31 39 37 33 30 27 22 23 23 21
5 4 13 21 17 15 15 15 4 6 2 6 7 5 9 12 8 9 12 11 13 17 19 22 22 29 30 31 33 35 34 34 33 33 30 35 38 35 32 31 24 22 21 21
2 7 8 11 11 7 17 13 7 2 8 7 5 10 10 9 16 11 12 15 16 16 16 16 17 26 28 31 32 33 34 35 34 33 32 31 30 33 31 32 25 22 22 24
3 2 7 11 13 20 8 12 7 6 2 5 5 5 8 16 13 18 17 17 15 12 12 14 16 25 26 25 28 29 31 32 33 32 33 32 30 28 28 27 26 25 24 26
2 2 10 23 4 7 16 19 17 9 9 0 2 2 1 5 1 5 9 4 3 5 6 9 11 17 21 25 27 29 29 31 32 33 32 32 31 29 29 28 27 26 27 29
3 6 8 5 5 2 15 17 22 17 3 13 5 5 1 2 3 6 4 5 3 4 6 7 9 12 19 22 25 27 28 33 33 31 31 30 30 30 31 29 36 37 36 34
6 3 7 10 16 9 19 21 18 21 13 14 14 10 11 1 2 2 2 4 2 4 5 6 8 10 16 21 24 25 26 29 31 30 31 30 32 36 37 37 38 38 38 38
5 2 1 3 1 13 14 19 18 18 21 17 13 11 12 12 12 1 2 3 3 5 6 7 8 9 13 16 18 20 21 25 30 32 31 30 31 34 37 37 37 36 36 36
11 2 1 4 2 7 15 13 16 17 17 18 15 16 8 7 9 6 5 1 3 5 7 8 9 10 13 17 19 20 22 23 28 29 32 34 34 35 35 35 36 35 36 36
8 7 2 4 2 7 3 5 13 12 10 6 14 3 15 10 15 14 18 12 13 16 14 11 11 11 14 17 18 21 22 20 22 24 28 29 29 30 30 32 33 34 33 35
5 6 3 3 3 6 6 12 15 18 14 14 10 12 14 16 19 18 9 15 13 15 17 17 15 17 14 14 16 17 20 21 20 20 24 25 27 28 28 30 32 29 32 33
6 2 4 2 6 7 5 12 8 6 7 14 14 16 19 22 17 8 12 21 19 19 17 20 24 22 15 15 16 19 21 21 22 21 23 24 26 28 29 30 32 34 34 33
1 3 2 4 3 3 3 14 8 4 4 16 16 16 19 21 6 1 26 26 25 27 27 28 25 15 14 15 18 21 21 22 22 21 22 23 26 29 30 31 32 33 33 36
5 4 4 4 2 4 8 15 3 5 4 16 15 15 15 11 10 23 24 23 29 30 32 32 24 16 12 13 17 20 20 21 19 21 23 24 27 29 30 31 34 36 36 37
4 4 3 2 3 1 15 3 3 4 8 13 15 13 16 17 21 22 22 22 22 25 30 29 21 14 9 12 17 18 18 17 22 26 26 26 27 29 32 35 33 32 35 34
2 2 3 3 3 6 7 4 5 6 9 12 16 18 17 20 21 23 20 21 22 28 27 25 20 14 9 12 16 17 17 21 25 26 26 27 29 29 32 36 34 32 32 31
2 1 2 6 2 9 10 10 6 13 14 16 15 17 19 19 21 23 20 19 18 26 25 23 19 14 11 11 14 16 20 26 29 27 27 27 28 29 28 29 30 31 29 29
1 2 2 5 5 10 4 3 16 19 17 17 19 19 19 19 20 21 19 20 22 25 24 20 17 14 11 9 12 18 23 27 28 28 28 28 29 27 28 25 27 28 27 32
4 4 2 2 1 5 11 13 19 19 18 19 19 23 21 21 19 24 18 24 24 24 24 19 16 12 10 10 13 17 24 27 29 28 28 29 30 30 30 30 26 22 25 22
Wind_Direction
175 174 194 192 199 212 180 186 185 159 173 186 183 166 177 181 186 179 183 189 194 197 191 192 193 190 189 190 189 190 189 190 188 187 187 186 186 192 199 196 199 183 184 178
163 203 191 185 167 156 175 181 183 119 149 214 190 187 173 185 197 187 185 190 197 192 195 194 197 197 196 193 193 193 194 192 192 189 189 187 195 198 205 205 205 186 180 171
180 185 165 172 176 157 182 187 170 169 147 75 161 208 177 197 208 210 208 200 194 195 191 196 197 199 199 197 195 194 195 193 193 191 194 192 194 195 197 198 201 191 186 188
184 160 165 170 181 179 173 207 157 146 163 187 223 207 204 192 203 210 202 201 200 199 200 197 197 201 202 202 199 197 197 197 198 193 191 193 198 196 202 199 201 194 194 191
175 166 167 172 182 195 138 155 132 161 182 183 194 242 201 190 205 211 210 204 206 200 197 197 197 201 202 201 198 198 200 202 200 197 197 198 202 204 197 202 197 202 197 194
158 169 168 159 155 167 137 122 84 81 143 224 198 212 213 196 209 204 211 210 208 203 201 202 204 203 204 201 199 198 201 203 203 202 202 202 200 198 191 187 194 200 197 190
136 161 144 157 141 134 167 153 131 167 206 221 168 212 228 199 213 211 202 206 208 205 204 203 202 202 203 200 201 201 202 204 203 203 203 204 205 198 198 192 194 199 196 194
132 161 164 176 167 178 186 185 180 186 195 176 128 221 218 230 222 231 240 217 211 209 210 210 204 202 201 201 201 202 203 205 204 204 206 212 212 211 206 199 196 201 201 198
149 121 182 179 172 159 186 214 209 100 360 186 198 227 272 238 232 229 223 221 216 211 210 211 205 205 203 201 202 202 205 206 206 206 206 209 213 212 207 210 203 201 198 192
164 120 191 168 168 199 202 164 185 190 167 202 196 228 229 201 222 222 226 222 221 221 218 215 211 208 208 206 206 206 207 207 206 206 207 208 209 210 211 214 202 198 196 196
344 174 173 154 204 185 160 194 208 207 261 233 195 220 199 223 212 210 220 224 224 211 215 217 213 212 211 208 205 205 206 207 207 207 207 208 208 207 206 204 204 200 194 196
351 230 164 184 74 250 206 203 198 200 192 170 308 173 128 264 322 240 248 270 251 228 211 211 214 208 204 206 205 205 204 204 206 206 206 206 206 206 205 204 201 197 195 196
360 194 127 120 287 230 207 208 206 220 207 209 198 147 34 131 204 237 270 315 244 194 176 188 193 201 204 206 208 207 205 206 205 201 201 201 201 198 199 200 206 207 205 201
280 268 218 188 194 178 200 207 207 212 216 220 217 234 220 235 37 57 236 247 237 211 203 198 206 209 209 210 208 208 207 205 202 200 200 195 195 197 197 205 209 206 207 203
23 240 40 29 146 195 206 203 200 215 226 229 222 223 262 294 295 327 331 156 217 238 224 221 219 215 213 214 213 212 210 203 198 197 193 192 194 195 201 206 206 204 203 201
349 329 210 207 23 198 204 202 210 218 216 230 237 245 323 297 316 282 304 254 241 254 246 236 233 228 221 215 210 205 200 194 197 196 190 195 197 198 199 199 200 195 194 192
354 350 328 214 63 116 227 280 231 206 47 333 238 334 350 334 335 359 352 15 354 350 336 306 284 267 244 221 209 205 197 185 182 187 192 192 191 190 191 191 189 184 183 178
309 327 292 159 186 200 86 27 32 97 55 19 355 342 340 323 311 299 43 15 357 343 331 326 307 285 251 232 214 203 193 183 181 179 187 190 188 186 184 184 180 174 171 168
224 310 328 303 203 113 32 23 358 4 63 18 353 342 340 332 305 193 26 360 339 331 322 313 310 286 261 223 208 195 192 183 176 177 182 184 184 180 176 173 170 171 162 163
196 228 315 327 307 180 357 330 315 255 186 4 355 347 343 342 328 263 345 339 330 327 325 321 315 271 235 220 198 196 190 182 185 180 178 182 185 186 174 171 165 162 161 160
348 355 3 332 309 112 2 323 328 191 11 338 338 337 334 327 300 300 313 322 322 321 323 322 311 278 249 214 199 198 188 189 179 175 178 177 181 175 171 162 161 156 152 148
353 328 10 280 274 156 9 7 25 354 321 328 325 321 318 311 309 307 313 318 322 323 326 326 312 288 251 214 202 198 194 176 172 179 175 169 166 164 161 157 151 149 145 143
238 21 306 311 18 1 348 289 85 7 329 322 317 318 316 311 308 309 311 317 317 318 321 320 309 290 248 216 208 193 177 162 160 157 153 155 157 155 154 150 146 144 146 144
155 348 254 325 85 324 319 149 3 352 330 319 316 315 314 306 307 307 309 313 314 314 317 317 306 282 256 220 205 197 171 165 159 150 149 148 147 146 148 148 148 148 152 152
56 324 313 267 309 321 121 223 336 331 324 319 318 311 307 307 305 304 304 307 310 308 309 311 298 283 260 219 189 179 171 164 155 152 150 148 146 147 142 144 150 153 159 161
186 179 222 292 182 263 282 305 317 314 317 319 317 313 310 305 304 301 302 303 305 305 305 307 296 275 246 209 187 179 172 166 155 150 150 150 146 144 140 135 129 144 149 153